Flag for U.S.A. Weather past 2 weeks in Albany, New York, U.S.A.

Now
57 °F

Sunny.


Feels Like: 54 °F
Forecast: 42 / 65 °F
Wind: 12 mph from West

Location: Albany County Airport

Current Time: May 23, 2015 at 1:25:19 PM

Latest Report: May 23, 2015 at 12:51 PM


Visibility: 10 mi

Pressure: 30.38 "Hg

Humidity: 28%

Dew point: 24 °F

Location of AlbanyLocation

Historic Weather in Albany — Graph

°F

Albany temperature yesterday

Maximum temperature yesterday: 67 °F (at 1:51 PM)
Minimum temperature yesterday: 48 °F (at 11:51 PM)
Average temperature yesterday: 58 °F

Past Weeks' High & Low Weather Summary

 TemperatureHumidityPressure
High88 °F (May 8, 3:51 PM)90% (May 11, 5:51 AM)30.43 "Hg (May 11, 5:51 AM)
Low38 °F (May 23, 5:51 AM)22% (May 15, 3:51 PM)29.71 "Hg (May 12, 1:51 PM)
Average64 °F57%30.06 "Hg
* Reported May 8 11:51 AM — May 23 11:51 AM, Albany, Weather by CustomWeather, © 2015

Note: Actual official high and low records may vary slightly from our data, if they occured in-between our weather recording intervals... More about our weather records

Advertising

Albany weather history for previous 24 hours

 ConditionsComfort  
Time TempWeatherWind HumidityBarometerVisibility
11:51 AM
Sat, May 23
54 °FSunny.12 mph30%30.40 "Hg10 mi
10:51 AM51 °FSunny.7 mph33%30.41 "Hg10 mi
9:51 AM50 °FSunny.16 mph32%30.40 "Hg10 mi
8:51 AM48 °FSunny.10 mph37%30.40 "Hg10 mi
7:51 AM45 °FSunny.9 mph45%30.39 "Hg10 mi
6:51 AM42 °FSunny.7 mph53%30.36 "Hg10 mi
5:51 AM38 °FClear.6 mph63%30.33 "Hg10 mi
4:51 AM39 °FClear.8 mph53%30.29 "Hg10 mi
3:51 AM40 °FClear.6 mph51%30.27 "Hg10 mi
2:51 AM43 °FPassing clouds.9 mph56%30.25 "Hg10 mi
1:51 AM45 °FPassing clouds.10 mph51%30.24 "Hg10 mi
12:51 AM47 °FOvercast.17 mph46%30.22 "Hg10 mi
11:51 PM
Fri, May 22
48 °FPassing clouds.14 mph54%30.18 "Hg10 mi
10:51 PM51 °FClear.13 mph33%30.12 "Hg10 mi
9:51 PM54 °FPassing clouds.16 mph29%30.10 "Hg10 mi
8:51 PM56 °FPassing clouds.17 mph29%30.07 "Hg10 mi
7:51 PM57 °FPassing clouds.16 mph31%30.05 "Hg10 mi
6:51 PM60 °FPassing clouds.16 mph27%30.02 "Hg10 mi
5:51 PM62 °FPassing clouds.17 mph26%30.00 "Hg10 mi
4:51 PM64 °FScattered clouds.21 mph25%29.98 "Hg10 mi
3:51 PM67 °FPartly sunny.20 mph25%29.94 "Hg10 mi
2:51 PM67 °FScattered clouds.20 mph25%29.93 "Hg10 mi
1:51 PM67 °FScattered clouds.21 mph26%29.90 "Hg10 mi
Weather by CustomWeather, © 2015

See weather overviewHow to use our weather pages